Location: ?????????
(48.5774°N, 34.0517°E)
Time: 01:00:46
(UTC+00:00)

Daily predictions for brighter satellites

Satellite Brightness Start Highest point End
(mag) Time Altitude Azimuth Time Altitude Azimuth Time Altitude Azimuth
CENTAUR R/B 3.7 00:57:57 51° NE 00:57:57 51° NE 01:06:10 10° ESE
Cosmos 2227 Rocket 4.4 01:16:37 18° NNE 01:16:37 18° NNE 01:17:59 10° NNE
NOSS 3-2 (A) 4.3 01:15:33 63° ESE 01:15:33 63° ESE 01:22:39 10° SE
USA 238 DEB 4.0 01:30:57 69° ESE 01:30:57 69° ESE 01:37:32 10° SE
USA 238 4.0 01:31:01 69° ESE 01:31:01 69° ESE 01:37:37 10° SE
ATLAS 5 CENTAUR R/B 4.0 01:37:34 31° ENE 01:37:34 31° ENE 01:39:08 10° NE
Lacrosse 4 Rocket 3.7 01:46:04 23° ENE 01:46:04 23° ENE 01:48:43 10° E
Cosmos 2297 Rocket 4.1 01:50:35 20° N 01:50:35 20° N 01:52:21 10° NNE
Cosmos 1461 4.5 01:56:48 38° E 01:56:48 38° E 01:59:56 10° ESE
ALOS 3.2 01:56:46 10° NNE 02:01:17 45° E 02:02:04 41° SE
Cosmos 2263 Rocket 3.1 02:04:26 19° S 02:08:17 48° ESE 02:13:44 10° NE
Lacrosse 5 4.3 02:05:17 10° SSE 02:08:44 19° ESE 02:12:11 10° E
ATLAS 3B R/B 3.6 02:12:27 29° NNW 02:15:25 44° NE 02:22:09 10° ESE
USA 305 4.1 02:20:23 37° NE 02:20:23 37° NE 02:23:13 10° ENE
SJ 16-02 3.2 02:20:31 10° SSE 02:24:23 30° E 02:28:17 10° NE
Cosmos 1603 3.5 02:26:27 70° NW 02:27:08 85° WSW 02:32:46 10° SSE
USA 306 3.9 02:28:18 41° NNE 02:28:18 41° NNE 02:31:27 10° ENE
FENGYUN 3A 3.6 02:24:53 10° NNE 02:30:21 84° ESE 02:35:46 10° SSW
Cosmos 1386 Rocket 4.4 02:26:38 10° SSW 02:33:00 70° W 02:39:22 10° N
COSMO-SKYMED 1 3.1 02:30:21 10° SSE 02:34:37 59° ENE 02:36:37 29° N
NOSS 3-2 (C) 4.0 02:33:03 44° WNW 02:35:44 68° SW 02:44:10 10° SSE
Cosmos 1943 3.1 02:35:21 52° NW 02:36:49 82° WSW 02:42:31 10° SSE
NOSS 3-4 (A) 4.0 02:32:22 10° SSW 02:38:05 55° ESE 02:44:12 10° NE
NOSS 3-4 (C) 4.0 02:32:29 10° SSW 02:38:13 54° ESE 02:44:19 10° NE
ADEOS 3.5 02:33:35 10° NNE 02:38:51 87° ESE 02:44:05 10° SSW
Nadezhda 1 Rocket 4.2 02:44:09 47° W 02:44:09 47° W 02:50:04 10° SSW
Cosmos 1777 Rocket 3.8 02:43:12 52° SW 02:44:24 72° WNW 02:49:38 10° NNE
Cosmos 1933 3.2 02:45:53 83° NNW 02:46:03 89° WNW 02:50:09 10° S
Cosmos 1680 Rocket 4.2 02:44:09 17° NNW 02:48:12 55° ENE 02:53:25 10° SE
ATLAS CENTAUR R/B 2.9 02:47:32 22° NNE 02:48:36 25° NE 02:51:49 10° E
CENTAUR R/B 3.2 02:45:10 35° WNW 02:48:49 61° WSW 02:57:29 10° SSE
CZ-4B R/B 4.4 02:47:36 10° NNE 02:50:03 40° NNE 02:50:03 40° NNE
Cosmos 1538 Rocket 4.1 02:54:50 48° W 02:55:27 50° WSW 03:00:32 10° S
Cosmos 2084 4.1 02:56:34 41° SW 02:56:34 41° SW 03:00:25 10° SSE
Cosmos 2227 Rocket 3.8 02:58:27 19° NNW 02:58:27 19° NNW 03:01:22 10° N
ATLAS 2AS CENTAUR R/B 3.4 02:49:58 10° SSW 02:57:49 65° ESE 03:05:34 10° NE
Meteor 1-4 Rocket 2.4 02:57:38 66° NNE 02:58:02 79° E 03:01:28 10° SSE
SL-4 R/B 1.7 02:58:04 75° WNW 02:58:16 79° NNW 03:02:01 10° ENE
Cosmos 2227 4.0 02:53:56 17° SW 02:58:23 76° WNW 03:04:03 10° NNE
SKYMED 3 4.4 02:54:18 10° SSE 02:58:39 81° WSW 03:00:56 28° NNW
Meteor 1-31 Rocket 2.6 02:55:15 10° N 02:59:07 71° WNW 02:59:54 52° SW
Cosmos 1782 3.2 02:56:05 14° N 02:59:26 62° ENE 03:03:25 10° SSE
Cosmos 158 Rocket 3.8 02:57:17 25° NNW 03:00:12 83° ENE 03:05:09 10° SSE
ARGOS Delta rocket 4.1 02:57:03 10° N 03:02:07 49° WNW 03:06:53 10° SW
Cosmos 2112 Rocket 4.4 03:02:12 13° NNW 03:06:59 66° ENE 03:12:19 10° SSE
deb Chang Zheng 4 3.4 03:04:07 10° N 03:08:25 66° WNW 03:12:43 10° SSW
Gbstr 26 Del rocket 2.5 03:14:20 49° WNW 03:15:17 87° NNE 03:19:12 10° ESE
Cosmos 1812 4.2 03:14:35 10° N 03:18:12 37° ENE 03:21:47 10° SE
METEOR-M 4.3 03:16:27 10° N 03:21:35 48° WNW 03:26:41 10° SW
Cosmos 1515 Rocket 3.6 03:17:08 10° N 03:21:37 87° ENE 03:26:05 10° S
Cosmos 1898 Rocket 4.4 03:16:39 10° S 03:21:47 53° ESE 03:26:59 10° NNE
USA 307 3.6 03:21:20 31° NW 03:22:42 41° N 03:26:49 10° ENE
SKYMED 2 3.8 03:18:34 10° S 03:22:44 46° W 03:25:15 22° NW
Cosmos 1633 2.7 03:19:21 10° SSW 03:22:44 45° WNW 03:26:10 10° N
Lacrosse 4 Rocket 1.7 03:22:25 33° WNW 03:23:59 50° WSW 03:28:13 10° SSE
FALCON 9 DEB 3.8 03:24:16 36° NW 03:24:56 41° N 03:28:16 10° ENE
Meteor 2-17 Rocket 4.3 03:19:08 10° SSW 03:25:11 82° W 03:31:17 10° N
Cosmos 1844 Rocket 3.9 03:22:46 10° S 03:28:07 45° ESE 03:33:29 10° NE
USA 308 3.6 03:27:19 28° NW 03:28:57 40° N 03:33:02 10° ENE
SAR-Lupe-4 4.3 03:26:34 10° SSW 03:29:40 31° W 03:29:40 31° W
Envisat 3.8 03:25:06 10° NNE 03:30:05 53° E 03:35:03 10° S
Cosmos 1184 Rocket 3.0 03:27:53 10° SSW 03:31:02 43° WNW 03:34:13 10° N
Meteor 1-26 Rocket 4.4 03:25:26 10° NNW 03:31:06 52° W 03:36:34 10° S
Cosmos 2297 Rocket 4.1 03:32:24 12° NNW 03:32:37 12° NNW 03:34:59 10° N
SL-19 R/B 4.4 03:28:57 10° NNE 03:32:57 71° WNW 03:37:32 10° SSW
YAOGAN 6 3.6 03:29:56 10° NNE 03:33:22 47° E 03:36:44 10° S
Cosmos 1437 Rocket 4.4 03:30:03 10° N 03:33:30 32° ENE 03:36:55 10° SE
Cosmos 1461 4.2 03:33:13 24° W 03:34:17 27° WSW 03:38:06 10° S
CZ-4B R/B 3.2 03:31:55 10° N 03:36:21 55° WNW 03:40:42 10° SSW
Cosmos 1151 Rocket 3.6 03:35:40 21° NW 03:37:49 33° W 03:41:38 10° SSW
Okean O Rocket 3.6 03:33:52 10° NNE 03:37:52 32° E 03:41:50 10° SSE
ALOS 3.2 03:34:39 10° N 03:38:27 25° WNW 03:40:32 18° W
CZ-4C R/B 2.6 03:34:18 10° SSW 03:39:11 64° SE 03:45:05 10° NE
Cosmos 2181 Rocket 4.2 03:35:20 10° NNW 03:41:12 44° W 03:46:58 10° SSW
Cosmos 1937 Rocket 4.1 03:38:43 10° S 03:43:45 59° ESE 03:48:51 10° NNE
H-2A R/B 2.7 03:41:01 10° N 03:44:56 73° WNW 03:48:49 10° SSW
Cosmos 1689 Rocket 3.4 03:42:39 10° SSW 03:44:28 21° WSW 03:44:28 21° WSW
Cosmos 1500 Rocket 3.6 03:42:51 10° S 03:47:10 83° E 03:51:31 10° N
Cosmos 1328 Rocket 4.3 03:44:55 13° NNW 03:48:15 30° W 03:52:07 10° SSW
Lacrosse 5 1.9 03:45:59 10° SW 03:51:03 82° SE 03:56:10 10° NE
SL-24 DEB 4.5 03:47:27 10° SSE 03:52:12 77° E 03:57:00 10° N
Cosmos 2263 Rocket 2.8 03:47:13 10° WSW 03:52:23 35° NW 03:57:37 10° NNE
ERBS 3.2 03:52:14 21° WNW 03:53:39 30° NNW 03:56:37 10° NE
Meteor 1-10 Rocket 4.2 03:48:17 10° NNW 03:53:51 89° W 03:59:27 10° S
Meteor 1-27 Rocket 4.4 03:48:56 10° N 03:54:37 61° ENE 04:00:23 10° SSE
Cosmos 2154 Rocket 4.1 03:49:44 10° S 03:55:56 81° E 04:02:14 10° N
Meteor 2-3 Rocket 4.2 03:51:43 10° SW 03:57:03 39° WNW 04:02:28 10° N
USA 305 3.7 03:56:31 17° WNW 03:59:32 40° N 04:03:36 10° ENE
Meteor PRIRODA 4.4 03:56:30 10° N 03:59:49 30° WNW 04:03:06 10° SW
SJ 16-02 2.0 03:58:55 10° SW 04:02:55 33° WNW 04:06:57 10° N
CZ-4B R/B 3.8 04:00:03 10° NNE 04:05:20 61° ESE 04:10:40 10° S
Cosmos 2082 Rocket 4.1 04:00:54 10° N 04:05:24 23° NE 04:09:52 10° E
ATLAS 3B R/B 2.9 03:59:43 10° NW 04:06:25 61° WSW 04:13:28 10° SSE
Aureole 2 Rocket 3.6 04:04:19 10° S 04:06:41 34° ESE 04:09:02 10° NE
Cosmos 1862 3.3 04:03:35 10° SSW 04:07:37 69° WNW 04:11:42 10° N
USA 306 3.7 04:04:26 14° WNW 04:07:48 40° N 04:11:53 10° ENE
MOS 1-B 4.4 04:02:54 10° NNE 04:08:46 89° WNW 04:14:35 10° SSW
EO 1 Delta rocket 4.4 04:04:40 10° SSW 04:09:34 40° W 04:14:00 10° NNW
FALCON 9 DEB 3.6 04:06:42 10° SW 04:09:51 57° SSE 04:13:01 10° ENE
CZ-2C R/B 2.8 04:04:23 10° SSE 04:09:55 81° ENE 04:15:20 10° NNW
Cosmos 1743 Rocket 3.6 04:05:35 10° SSW 04:09:57 57° WNW 04:14:24 10° N
COSMO-SKYMED 1 4.1 04:08:24 10° SW 04:11:09 16° W 04:13:49 10° NW
Cosmos 990 Rocket 4.1 04:09:28 10° SW 04:14:36 54° WNW 04:19:47 10° NNE
Cosmos 1408 Rocket 4.4 04:10:42 10° SW 04:14:37 29° WNW 04:18:33 10° N
COSMOS 2455 4.1 04:09:14 10° S 04:15:00 48° ESE 04:20:46 10° NE
Sich 1 3.6 04:10:46 10° S 04:15:08 64° E 04:19:33 10° NNE
COSMOS 2406 4.2 04:11:11 10° NNW 04:16:44 47° NE 04:22:16 10° SE
Cosmos 2327 Rocket 4.4 04:13:58 10° SSW 04:20:02 67° WNW 04:26:07 10° N
EXPRESS MD2 4.2 04:17:00 11° WNW 04:20:51 89° SSW 04:29:07 10° ESE
Cosmos 2074 Rocket 4.2 04:15:06 10° SSW 04:21:02 46° WNW 04:27:01 10° N
PSLV R/B 4.3 04:18:41 10° N 04:22:18 36° WNW 04:25:50 10° SW
Cosmos 1833 Rocket 3.8 04:17:30 10° NNW 04:22:51 42° NE 04:28:10 10° SE
MOS 1 Rocket 4.2 04:22:37 10° SSW 04:26:48 31° W 04:31:15 10° NNW
ATLAS CENTAUR R/B 1.6 04:24:00 10° NW 04:27:37 45° WSW 04:31:22 10° SSE
NOAA 6 4.1 04:23:58 10° N 04:28:57 54° WNW 04:33:56 10° SW
NOSS 3-4 (A) 3.9 04:23:30 10° WSW 04:29:10 42° NNW 04:35:20 10° NE
NOSS 3-4 (C) 3.9 04:23:37 10° WSW 04:29:17 42° NW 04:35:28 10° NE
Cosmos 1805 Rocket 3.6 04:25:20 10° SSW 04:29:45 70° W 04:34:13 10° N
BREEZE M DEB (TANK) 3.3 04:24:44 10° SW 04:30:33 46° SSE 04:32:59 10° E
SMAP 3.0 04:28:22 10° N 04:33:01 69° WNW 04:37:38 10° SSW
Cosmos 2184 Rocket 4.5 04:29:16 10° SW 04:35:07 39° WNW 04:41:04 10° N
Cosmos 2278 Rocket 4.4 04:30:35 10° SSE 04:35:30 31° ESE 04:40:26 10° NE
USA 234 3.3 04:29:07 10° NE 04:35:40 84° NNW 04:42:14 10° WSW
USA 81 4.2 04:30:40 10° S 04:35:55 85° E 04:41:14 10° N
Cosmos 1666 Rocket 4.0 04:32:04 10° S 04:36:21 68° E 04:40:39 10° NNE
